Tokyo Intl current weather conditions

sailwx.info

Wind from 350 at 16 knots gusting 26

Air temperature 8.0° C
Visibility: greater than 5.4 NM
Dewpoint -8.0° C

Last reported at 2015-Feb-01 06:40 UTC.
Time now 2015-Feb-01 07:14 UTC

Location: N 35°33' E 139°47'.
View on Google Maps.

See reports from other nearby stations

  
Tides and Currents Weather Stations Pressure Air Temp Water Temp Dewpoint Dewpoint Depression Visibility Wind Speed Wind Dir Waves Ship Positions
date/time (UTC)wind fromknots sea level pressurealtimeterstation pressurevisibilityair tempwater tempwave heightnotes
2015-Feb-01 06:40 350 16 gusting 26 5.4 8.0
2015-Feb-01 06:30 350 15 5.4 8.0
2015-Feb-01 06:00 350 17 5.4 8.0
2015-Feb-01 05:30 350 17 5.4 8.0
2015-Feb-01 05:00 350 18 5.4 8.0
2015-Feb-01 04:30 330 16 gusting 26 5.4 8.0
2015-Feb-01 04:00 320 17 gusting 29 5.4 8.0
2015-Feb-01 03:30 330 17 5.4 8.0
2015-Feb-01 03:00 330 18 gusting 27 5.4 7.0
2015-Feb-01 02:30 330 19 gusting 30 5.4 7.0
2015-Feb-01 02:06 320 19 gusting 29 5.4 7.0
2015-Feb-01 02:00 320 18 5.4 7.0
2015-Feb-01 01:35 330 15 gusting 25 5.4 6.0
2015-Feb-01 01:30 340 13 5.4 6.0
2015-Feb-01 01:00 320 12 5.4 5.0
2015-Feb-01 00:30 320 9 5.4 5.0
2015-Feb-01 00:00 310 12 5.4 4.0
2015-Jan-31 23:30 300 20 5.4 3.0
2015-Jan-31 23:26 300 20 5.4 3.0
2015-Jan-31 23:00 320 10 5.4 3.0
2015-Jan-31 22:38 320 16 gusting 26 5.4 3.0
2015-Jan-31 22:30 320 17 5.4 3.0
2015-Jan-31 22:00 320 11 5.4 2.0
2015-Jan-31 21:30 320 10 5.4 2.0
2015-Jan-31 21:00 320 14 5.4 2.0
2015-Jan-31 20:35 320 15 gusting 25 5.4 2.0
2015-Jan-31 20:30 320 16 5.4 2.0
2015-Jan-31 20:00 320 19 5.4 3.0
2015-Jan-31 19:30 320 17 gusting 27 5.4 3.0
2015-Jan-31 19:16 320 17 gusting 27 5.4 3.0
2015-Jan-31 19:00 320 19 5.4 3.0
2015-Jan-31 18:43 310 17 gusting 27 5.4 3.0
2015-Jan-31 18:30 310 17 5.4 3.0
2015-Jan-31 18:00 310 19 5.4 3.0
2015-Jan-31 17:30 310 20 3.0
2015-Jan-31 17:00 310 18 gusting 27 3.0
2015-Jan-31 16:30 310 20 gusting 30 3.0
2015-Jan-31 16:00 310 16 gusting 27 3.0
2015-Jan-31 15:30 310 16 5.4 3.0
2015-Jan-31 15:00 320 13 5.4 3.0
2015-Jan-31 14:31 310 18 gusting 27 5.4 3.0
2015-Jan-31 14:30 310 19 5.4 3.0
2015-Jan-31 14:14 320 15 gusting 25 5.4 3.0
2015-Jan-31 14:00 320 14 5.4 3.0
2015-Jan-31 13:30 320 14 5.4 3.0
2015-Jan-31 13:00 320 18 5.4 3.0
2015-Jan-31 12:30 320 13 5.4 3.0
2015-Jan-31 12:00 330 13 5.4 4.0
2015-Jan-31 11:30 320 16 5.4 4.0
2015-Jan-31 11:00 340 18 5.4 5.0
2015-Jan-31 10:38 340 18 gusting 27 5.4 5.0
2015-Jan-31 10:30 340 23 5.4 5.0
2015-Jan-31 10:23 340 19 gusting 29 5.4 5.0
2015-Jan-31 10:00 340 19 5.4 5.0
2015-Jan-31 09:30 340 19 5.4 6.0
2015-Jan-31 09:00 350 19 5.4 6.0
2015-Jan-31 08:30 340 20 5.4 7.0
2015-Jan-31 08:08 340 19 gusting 29 5.4 7.0
2015-Jan-31 08:00 340 20 5.4 7.0
2015-Jan-31 07:30 340 20 5.4 8.0
2015-Jan-31 07:16 350 17 gusting 27 5.4 8.0
2015-Jan-31 07:00 350 19 5.4 8.0
2015-Jan-31 06:30 320 23 gusting 35 5.4 9.0
2015-Jan-31 06:00 330 20 gusting 34 5.4 9.0
2015-Jan-31 05:31 330 18 gusting 29 5.410.0
2015-Jan-31 05:30 330 18 5.410.0
2015-Jan-31 05:02 330 22 gusting 32 5.410.0
2015-Jan-31 05:00 330 24 5.410.0
2015-Jan-31 04:30 340 25 gusting 38 5.410.0
2015-Jan-31 04:00 330 23 gusting 36 5.410.0
2015-Jan-31 03:30 320 26 gusting 36 5.410.0
2015-Jan-31 03:01 320 20 gusting 31 5.410.0
2015-Jan-31 03:00 320 20 5.410.0
2015-Jan-31 02:30 330 20 gusting 33 5.4 9.0
2015-Jan-31 02:16 320 16 gusting 27 5.4 9.0
2015-Jan-31 02:00 330 14 5.4 9.0
2015-Jan-31 01:30 340 16 5.4 9.0
2015-Jan-31 01:00 340 19 gusting 29 5.4 8.0
2015-Jan-31 00:30 330 20 gusting 30 5.4 8.0
2015-Jan-31 00:22 330 19 gusting 29 5.4 8.0
2015-Jan-31 00:00 340 16 5.4 7.0
2015-Jan-30 23:30 330 10 5.4 7.0
2015-Jan-30 23:00 320 7 5.4 6.0
2015-Jan-30 22:30 310 8 5.4 5.0
2015-Jan-30 22:00 310 6 5.4 4.0
2015-Jan-30 21:30 230 6 5.4 3.0
2015-Jan-30 21:00 320 5 5.4 4.0
2015-Jan-30 20:30 300 6 5.4 3.0
2015-Jan-30 20:00 250 7 5.4 3.0
2015-Jan-30 19:30 260 4 5.4 3.0
2015-Jan-30 19:00 290 4 5.4 3.0
2015-Jan-30 18:30 290 4 5.4 3.0
2015-Jan-30 18:00 270 4 5.4 3.0
2015-Jan-30 17:30 300 3 5.4 3.0
2015-Jan-30 17:00 270 4 5.4 3.0
2015-Jan-30 16:30 240 6 5.4 3.0
2015-Jan-30 16:00 240 7 5.4 4.0
2015-Jan-30 15:30 240 5 5.4 5.0
2015-Jan-30 15:00 270 6 5.4 4.0
2015-Jan-30 14:30 280 4 5.4 5.0
2015-Jan-30 14:00 330 9 5.4 6.0
2015-Jan-30 13:30 350 10 5.4 6.0
2015-Jan-30 13:00 360 13 5.4 6.0
2015-Jan-30 12:30 360 13 5.4 6.0
2015-Jan-30 12:00 340 13 5.4 5.0
2015-Jan-30 11:30 340 12 5.4 5.0
2015-Jan-30 11:00 350 14 5.4 5.0
2015-Jan-30 10:50 340 12 5.4 5.0
2015-Jan-30 10:30 340 12 5.4 4.0 Light rain.
2015-Jan-30 10:00 330 14 3.2 4.0 Light rain.
2015-Jan-30 09:30 330 16 3.2 4.0 Light rain.
2015-Jan-30 09:00 330 11 2.7 3.0 Light rain. Mist.
2015-Jan-30 08:30 330 10 3.8 4.0 Light rain.
2015-Jan-30 08:11 330 10 3.2 3.0 Light rain.
2015-Jan-30 08:00 330 11 2.7 3.0 Light rain. Mist.
2015-Jan-30 07:30 340 14 2.4 3.0 Light rain. Mist.
2015-Jan-30 07:00 340 14 2.2 3.0 Light rain. Mist.